Tracking 28518 objects as of 2-Mar-2024
HD Live streaming from Space Station
objects crossing your sky now

STARLINK-30852

Track STARLINK-30852 now!
10-day predictions
STARLINK-30852 is classified as:


NORAD ID: 58373
Int'l Code: 2023-177Y
Perigee: 565.5 km
Apogee: 567.0 km
Inclination: 43.0 °
Period: 95.8 minutes
Semi major axis: 6937 km
RCS: Unknown
Launch date: November 18, 2023
Source: United States (US)
Launch site: AIR FORCE EASTERN TEST RANGE (AFETR)
Your satellite tracking list
Your tracking list is empty




NASA's NSSDC Master Catalog

Two Line Element Set (TLE):
1 58373U 23177Y   24061.66328753  .00001585  00000-0  13238-3 0  9998
2 58373  42.9998  42.1082 0001068 271.8930  88.1790 15.02536270 17193
Source of the keplerian elements: AFSPC